Theta_e
310 310 310 310 310 310 310 311 311 311 311 311 311 311 312 312 311 302 298 301 296 292 295 303 307 303 303 302 298 302 302 302 302 297 295 295 294 297 295 296 296 296 294 292 290 289 292 305 307 302 304 306 310 309
310 310 309 310 310 310 310 310 310 311 311 311 311 310 311 311 311 306 294 300 301 293 294 300 304 305 308 310 305 304 301 302 303 300 299 298 298 296 294 294 298 296 300 298 298 297 303 306 305 308 309 308 309 309
309 309 309 309 309 309 309 310 310 310 310 311 311 310 310 310 311 308 299 296 293 290 293 295 298 303 304 304 307 300 301 305 303 304 301 299 298 299 296 297 299 300 301 300 301 302 306 308 309 310 311 309 309 310
309 308 308 309 309 309 309 309 309 310 310 310 310 310 310 310 310 309 299 295 294 290 285 291 302 298 304 302 304 307 307 305 302 302 298 298 298 302 298 300 299 302 302 300 300 304 307 311 311 311 312 312 311 311
309 309 309 309 309 309 309 309 309 309 309 309 310 310 310 310 310 303 295 296 296 292 287 289 296 298 300 299 302 303 303 302 300 297 296 296 299 300 300 299 298 302 301 301 300 306 306 308 312 313 311 311 311 312
308 308 308 308 308 308 309 309 309 309 309 309 310 310 310 309 308 293 290 301 302 300 294 289 294 297 302 303 302 300 301 301 300 298 297 300 303 302 296 295 303 306 304 306 305 307 309 312 313 314 312 312 313 312
307 308 308 308 308 308 308 308 309 309 309 309 309 309 309 309 301 292 289 296 303 298 291 287 290 298 303 302 300 300 302 300 299 298 298 300 300 305 298 298 303 304 308 307 307 310 308 311 311 313 313 313 313 312
307 307 308 308 308 308 308 308 308 308 309 309 309 309 309 308 302 299 302 307 306 293 290 287 291 293 298 295 296 299 298 297 298 298 298 301 303 299 298 303 307 308 308 308 309 310 309 310 311 311 311 311 310 310
307 307 307 307 308 308 308 308 308 308 308 308 308 307 299 295 291 294 306 308 301 294 287 293 291 287 298 294 296 298 301 294 299 297 298 300 299 297 300 303 305 309 309 310 309 311 310 310 310 310 311 310 310 309
307 307 307 308 308 308 308 308 308 308 308 306 298 293 288 294 307 305 303 299 295 297 297 290 291 287 292 291 290 291 293 295 292 297 300 299 300 305 304 306 310 309 309 311 306 305 306 307 308 308 310 311 311 311
307 307 307 308 308 308 308 307 307 307 302 294 290 288 294 303 294 291 288 292 291 291 292 292 291 287 294 287 288 293 289 294 292 297 297 295 297 303 307 307 307 310 311 309 312 312 311 310 309 308 308 310 313 315
307 308 308 308 308 307 307 307 307 297 294 296 298 301 296 295 290 287 287 286 286 288 289 288 288 289 290 294 292 295 289 290 288 299 296 293 297 302 306 309 312 309 310 310 311 311 311 312 311 311 310 313 315 316
308 308 308 308 308 308 308 307 307 306 303 298 297 293 291 290 283 284 280 285 284 288 289 289 287 294 296 297 294 291 288 288 297 293 294 296 300 303 305 307 309 311 312 312 312 312 312 310 311 312 313 315 316 315
308 308 308 308 308 308 307 307 307 304 297 290 289 282 283 282 283 283 284 284 288 290 290 291 292 293 295 291 292 290 290 293 289 289 293 299 301 301 304 308 309 311 311 312 311 310 309 310 312 315 316 317 316 314
308 308 308 306 307 308 307 307 305 301 295 289 289 282 282 285 285 287 288 288 290 292 291 291 293 293 292 288 293 292 290 287 290 292 298 298 302 303 306 308 309 309 310 310 310 309 310 312 315 316 317 316 315 314
307 305 301 307 307 307 307 305 301 298 295 291 290 286 284 283 283 283 285 286 290 291 294 295 291 288 286 287 286 290 291 289 293 298 299 302 304 305 307 310 310 312 309 309 310 311 313 315 315 316 315 315 314 311
306 296 304 307 307 306 306 299 297 294 291 289 287 290 288 287 284 286 285 287 292 291 289 291 287 285 289 285 286 290 290 294 297 299 301 304 304 306 309 310 310 310 310 312 313 315 315 316 317 316 313 311 311 310
296 299 307 307 304 302 300 299 294 293 288 288 285 284 285 287 285 287 288 290 290 291 293 290 293 285 285 284 287 293 296 297 300 301 302 304 307 308 313 311 314 313 314 315 316 317 317 317 316 315 313 311 310 310
299 299 304 306 302 298 293 294 295 287 289 286 285 285 285 287 289 291 291 292 292 294 294 294 290 287 288 291 293 297 297 296 298 302 303 308 308 307 308 313 316 316 316 316 317 317 317 318 317 316 313 313 311 310
307 307 308 306 305 296 292 292 295 290 286 285 288 287 286 286 288 288 290 290 289 291 291 290 291 293 294 297 300 300 300 302 302 301 302 304 308 308 307 306 310 315 315 316 315 311 315 315 316 315 314 313 312 312
301 300 305 304 300 298 294 292 289 291 290 288 292 292 288 287 286 287 288 289 288 288 287 290 291 295 298 298 303 302 302 303 302 302 302 302 306 307 307 310 313 315 316 316 315 312 315 315 315 316 315 315 315 316
295 305 301 302 295 296 293 293 289 288 289 291 291 292 289 289 286 287 288 286 287 288 290 291 291 293 294 295 301 303 304 306 306 305 303 304 305 305 305 307 311 313 316 316 315 314 315 316 316 317 316 315 313 316
301 300 296 296 293 290 289 291 289 290 286 289 292 290 290 290 288 294 288 288 288 290 291 292 293 293 295 297 302 304 305 305 305 305 306 306 306 307 308 311 314 315 314 314 316 316 315 309 313 316 316 316 316 314
302 297 292 291 291 287 290 285 287 286 288 290 288 287 290 291 293 291 286 288 291 293 294 292 294 296 297 299 299 301 304 306 306 306 307 306 304 307 311 316 318 317 317 317 317 316 317 316 311 316 315 312 308 307
290 288 290 286 291 289 287 286 285 287 287 289 288 287 289 294 291 291 290 289 292 295 295 296 295 295 295 298 301 303 306 306 305 305 306 306 306 310 315 318 318 318 319 317 316 317 316 316 315 314 309 308 308 307
285 288 285 287 288 285 285 284 288 289 289 289 290 291 292 289 288 288 292 294 293 295 296 297 302 298 298 302 302 303 306 309 307 305 306 306 306 307 310 316 316 316 319 319 317 317 315 314 315 314 311 307 301 310
285 286 288 291 290 290 288 289 291 290 289 290 293 291 288 284 285 291 296 299 296 297 299 301 302 303 301 301 304 306 308 308 307 306 308 307 310 311 313 317 316 318 319 318 318 317 315 314 316 314 312 311 313 313
291 290 286 289 288 289 288 290 290 290 292 293 295 290 286 287 290 296 298 302 303 301 301 303 304 305 305 303 304 306 306 305 306 307 309 315 318 318 315 314 316 306 321 321 319 317 316 318 316 314 313 312 313 314
289 292 292 288 290 290 290 290 291 293 295 296 293 293 295 298 299 300 302 302 303 301 300 302 304 306 309 305 304 303 303 304 304 304 310 309 311 315 319 321 320 321 319 316 300 312 319 317 317 316 316 315 315 314
291 294 290 291 290 290 293 295 295 297 297 298 298 297 298 300 303 304 303 302 302 302 304 305 306 306 305 305 305 306 306 305 305 304 303 304 308 314 321 320 319 318 318 317 316 313 301 312 309 316 315 314 314 313
296 295 293 293 292 296 298 300 301 301 300 298 298 297 297 300 302 306 303 303 303 304 305 306 308 308 304 304 304 304 304 307 307 307 307 307 308 310 320 321 317 316 316 317 317 315 313 314 316 316 316 314 314 313
294 293 292 292 294 299 299 298 297 297 298 297 297 297 301 299 298 303 306 306 305 305 305 306 307 307 310 309 309 309 301 307 307 309 312 312 309 311 319 318 317 316 317 318 316 314 315 316 315 316 316 315 315 315
294 294 294 293 294 295 298 299 298 298 300 297 298 300 300 299 299 305 308 309 308 308 309 310 311 312 313 313 313 312 306 311 309 304 304 303 303 309 318 319 318 318 318 317 317 315 316 316 315 316 316 315 315 314
Wind_Speed
10 11 12 13 14 15 15 15 16 16 16 16 17 17 18 18 18 6 3 4 3 2 7 4 4 2 2 1 1 5 5 3 4 1 3 4 5 7 4 6 8 7 5 4 3 2 6 6 6 8 9 1 10 7
10 11 12 13 14 14 15 15 16 16 16 16 17 16 16 16 15 9 3 3 1 3 7 3 7 9 8 7 4 2 2 1 4 1 1 1 3 0 4 5 2 2 8 6 9 8 4 5 4 4 6 9 8 9
11 12 13 13 14 14 15 15 16 16 16 16 16 16 16 15 14 9 4 3 2 3 6 3 6 2 7 9 7 5 4 4 2 2 3 2 4 4 4 6 3 3 4 4 3 3 4 3 1 2 2 7 7 6
11 12 12 13 13 14 14 14 15 15 16 16 16 16 16 15 15 12 3 1 2 0 2 9 4 5 7 6 6 12 11 2 3 2 1 3 3 3 4 3 4 5 6 6 3 5 4 3 1 5 6 7 8 7
11 12 13 13 14 14 15 15 15 15 16 16 16 16 16 15 14 5 1 2 2 3 3 9 13 7 5 6 12 10 7 6 3 2 3 5 3 1 2 1 4 4 7 5 6 7 5 5 3 6 9 9 12 11
11 12 13 14 14 14 15 16 16 16 17 17 17 16 15 13 9 3 4 2 3 3 2 6 6 7 7 7 8 9 9 6 5 5 5 5 5 5 5 5 9 10 5 6 6 6 5 2 6 6 8 10 7 10
12 12 13 13 14 14 14 15 16 16 17 18 18 17 15 11 1 2 4 3 4 2 2 5 7 6 6 5 3 2 4 5 5 4 7 5 4 7 4 12 4 7 11 7 5 6 0 5 8 10 8 8 8 6
12 13 13 14 15 15 15 15 16 17 18 19 19 18 17 11 2 3 3 7 3 2 1 3 6 7 5 4 5 1 2 1 4 5 1 8 6 2 10 7 15 11 6 6 7 8 3 4 9 8 8 11 11 9
13 14 14 14 15 15 15 15 16 17 18 20 21 14 3 3 1 4 8 9 2 3 2 3 3 4 6 4 3 5 1 3 4 5 5 6 8 12 8 8 10 17 18 19 9 7 6 7 10 13 13 10 13 8
13 14 14 14 15 15 14 14 15 16 18 16 5 4 4 2 12 11 3 2 1 2 3 3 2 4 3 4 5 5 4 5 4 6 1 9 14 15 8 10 16 15 17 15 8 6 6 6 12 14 16 13 12 11
13 13 14 14 14 13 12 12 13 12 8 4 4 3 4 10 3 2 2 2 2 3 2 3 5 3 2 3 4 4 5 5 5 6 6 5 9 11 15 14 12 13 13 12 15 11 16 16 16 12 9 9 10 11
13 14 14 14 13 12 12 11 9 3 1 3 4 4 3 3 1 2 2 3 2 3 2 3 5 4 4 3 4 4 5 4 8 1 3 4 3 6 7 16 18 10 10 10 9 11 11 14 18 16 13 12 11 9
13 13 12 13 13 12 10 8 8 7 4 2 1 3 1 2 2 4 3 3 3 2 4 2 4 3 3 4 5 4 7 8 4 3 5 3 2 5 8 8 10 10 8 8 7 9 12 13 12 15 13 10 12 10
12 12 12 13 14 13 9 7 6 3 2 1 2 4 3 4 5 5 4 3 5 3 4 4 4 4 5 5 5 7 8 2 5 5 5 2 5 8 9 8 7 9 9 11 12 14 16 16 12 12 13 12 12 10
11 11 12 10 6 7 3 3 2 1 0 2 2 5 6 5 3 4 2 4 5 3 4 5 5 6 5 6 6 5 6 7 5 3 3 4 8 10 11 10 8 8 10 11 12 15 16 15 15 12 11 11 10 10
9 8 2 5 6 5 2 4 2 0 2 2 5 5 4 4 6 2 3 5 3 3 3 3 5 5 6 4 5 7 4 3 3 4 6 9 9 12 13 12 9 8 9 12 14 17 17 17 16 14 11 10 10 11
5 2 6 7 2 3 3 1 0 3 3 4 5 6 8 8 8 7 3 5 2 2 2 4 5 5 4 4 4 7 4 5 8 10 8 9 9 12 12 8 4 10 12 13 16 16 15 13 14 14 13 7 9 8
3 3 5 5 1 1 1 2 2 3 6 6 5 2 3 5 5 7 5 4 2 3 3 4 2 4 3 5 3 5 7 7 6 8 9 10 9 12 6 5 2 9 13 15 16 14 15 15 14 9 11 9 9 8
5 4 7 6 2 1 2 2 1 4 6 3 5 3 4 6 7 11 10 9 6 4 4 3 5 3 3 5 8 9 5 4 7 9 8 7 7 7 7 9 7 8 11 13 14 10 9 10 10 9 8 8 8 5
9 10 9 6 5 1 3 2 2 4 5 4 3 3 4 5 4 4 7 6 4 3 4 5 5 4 4 4 4 5 5 6 6 7 6 7 7 6 10 8 4 7 9 10 9 11 9 9 8 8 8 8 8 5
4 4 2 4 2 3 3 2 4 4 4 4 2 4 6 3 5 4 4 3 3 4 4 5 5 6 6 5 5 4 5 6 6 6 7 4 6 8 9 7 4 4 7 8 8 8 10 9 8 8 7 6 4 5
3 4 1 2 2 3 3 4 4 3 3 4 3 3 4 5 4 4 0 1 4 4 4 5 5 5 4 4 5 4 4 7 7 7 9 7 8 7 8 5 3 3 7 8 8 9 9 8 7 6 6 5 5 4
1 2 1 3 4 4 5 2 4 3 3 3 3 4 3 3 4 2 3 3 4 3 4 5 6 5 4 2 3 3 4 6 5 6 7 9 7 7 4 2 3 7 8 7 8 8 7 7 7 6 5 5 4 3
4 3 3 3 4 4 1 3 2 3 3 3 3 5 4 3 4 2 3 3 4 3 4 5 3 1 3 2 1 3 4 3 5 7 6 6 5 5 1 4 4 5 7 8 8 7 6 6 6 5 5 6 5 5
2 4 3 5 3 3 3 4 4 3 4 4 3 4 3 3 3 3 2 4 3 3 4 4 3 2 2 2 3 3 3 3 5 7 4 2 4 7 5 7 7 5 4 9 7 8 6 5 5 6 6 7 8 6
5 5 8 5 4 4 4 4 4 4 3 4 4 2 2 2 3 3 3 2 3 3 4 4 5 3 1 2 3 2 3 4 3 5 7 6 6 4 3 5 8 4 3 7 7 7 6 5 6 7 6 6 9 7
5 6 5 4 3 2 3 4 4 3 5 4 2 1 1 3 4 4 3 3 3 4 3 3 4 2 2 3 4 5 4 3 5 5 5 4 2 2 1 3 3 2 3 6 7 8 8 6 5 6 6 4 3 4
5 3 5 3 4 3 3 3 3 4 4 4 2 3 3 4 5 3 4 4 4 4 4 5 4 5 3 4 4 3 4 3 7 7 2 6 3 1 2 4 2 1 3 5 7 5 5 5 6 6 7 5 4 3
4 2 2 5 6 6 6 7 5 4 3 4 4 4 4 5 4 6 7 4 4 2 3 4 4 3 2 3 2 2 4 1 7 9 8 3 3 3 2 1 2 2 3 7 11 7 7 6 6 5 5 4 4 5
4 5 4 4 5 6 5 7 4 3 3 3 3 6 8 9 7 4 2 3 3 4 4 3 2 2 1 1 3 4 3 3 3 2 1 3 4 2 2 3 4 4 4 5 5 5 8 5 4 3 4 6 5 4
2 2 4 4 5 4 7 8 8 8 8 5 6 8 8 4 4 2 1 2 2 2 2 1 1 1 2 2 2 2 4 2 5 6 5 3 2 1 2 2 2 3 3 4 3 3 3 2 2 3 5 7 7 5
3 5 3 4 5 3 4 2 2 2 2 1 3 2 2 2 3 3 2 3 2 2 4 1 1 3 4 4 4 4 5 3 3 4 6 4 4 3 4 3 2 1 1 2 3 3 3 4 5 5 6 8 7 7
3 3 4 3 3 4 3 2 2 2 3 2 2 3 2 2 1 3 0 3 3 4 4 4 4 4 5 5 5 4 6 5 5 6 6 3 2 6 4 3 3 2 2 1 1 3 4 4 4 5 5 5 3 2
Wind_Direction
345 345 345 345 346 347 347 347 346 346 348 350 352 355 359 2 4 27 292 360 60 288 280 253 298 297 0 111 131 295 347 341 349 31 159 212 188 217 153 196 176 172 161 200 113 135 266 162 76 157 207 18 155 160
337 338 339 341 342 343 344 344 344 346 345 346 349 350 352 355 1 19 338 335 16 193 255 284 253 261 255 231 167 259 217 279 231 72 326 293 265 190 176 215 44 212 185 187 172 212 230 238 259 268 177 142 161 153
333 334 336 338 338 337 338 339 341 341 340 340 341 345 346 348 354 4 312 296 6 331 295 337 252 294 225 236 224 204 274 229 287 176 181 235 258 135 189 237 187 240 159 158 79 267 256 302 141 168 163 124 126 124
328 329 330 331 332 333 333 334 335 334 334 334 336 337 339 341 340 344 306 212 116 198 285 280 339 307 280 286 225 223 248 300 84 68 246 221 216 172 230 232 182 202 135 157 249 273 280 281 197 151 105 102 114 128
323 322 323 325 325 326 327 328 329 330 331 329 327 328 332 337 333 344 247 239 176 106 288 294 308 260 304 214 231 241 217 199 186 202 182 222 236 187 232 97 250 188 180 152 214 216 156 232 197 151 146 160 154 143
322 323 323 322 321 321 323 325 324 323 323 323 322 321 323 332 352 30 20 6 169 171 333 304 288 301 295 254 238 218 225 207 185 178 202 223 243 167 209 228 226 204 204 187 217 193 203 310 171 151 148 152 157 151
318 319 319 323 321 319 321 322 322 320 319 319 318 315 312 310 277 196 197 202 202 23 231 295 286 280 304 317 309 265 204 206 172 203 219 239 240 199 206 235 257 242 232 222 207 131 209 179 195 177 141 137 116 113
313 315 318 319 318 321 320 320 322 321 319 317 314 311 307 304 337 242 248 238 179 136 134 268 279 326 10 338 325 355 257 186 251 223 234 203 209 190 248 212 219 223 228 225 220 214 217 147 120 122 124 133 134 140
305 308 313 315 316 316 318 320 322 322 319 316 314 318 26 43 52 244 268 289 131 147 224 230 285 299 354 349 294 314 328 297 247 203 210 165 195 218 207 177 209 212 212 233 223 225 158 174 160 148 146 143 145 153
310 311 312 312 314 314 313 318 322 322 318 322 12 23 334 259 300 312 184 167 109 195 209 231 290 285 18 354 303 334 289 240 270 239 184 222 232 224 220 227 210 204 201 206 148 178 164 159 164 161 172 165 156 155
310 311 312 315 315 317 318 319 323 332 356 22 4 295 265 313 16 20 270 222 154 220 199 224 212 228 288 193 218 222 264 271 260 236 182 239 238 222 209 211 234 213 198 186 197 201 184 175 171 159 149 149 147 151
310 312 312 314 315 313 314 315 330 28 234 233 274 279 294 300 317 272 291 325 239 263 226 188 230 210 269 224 231 249 222 265 256 205 206 239 266 335 218 209 224 197 185 192 182 180 180 177 167 162 151 151 153 143
308 308 303 306 308 309 308 307 313 296 297 318 241 264 1 288 300 196 238 213 247 228 232 222 293 240 260 229 247 254 238 229 320 228 241 210 273 342 342 319 320 317 214 181 164 165 164 153 152 148 144 145 137 136
303 302 304 306 308 297 283 290 300 347 53 303 349 291 219 232 239 221 204 212 250 251 282 268 274 246 206 232 222 237 244 271 252 243 208 136 327 308 299 291 281 273 209 188 160 149 147 148 145 137 139 140 136 145
306 304 309 309 310 334 294 273 128 61 277 266 231 242 238 240 261 256 262 308 266 247 264 293 253 225 209 236 228 241 244 219 206 321 322 306 306 300 297 291 274 248 199 177 159 153 150 142 139 134 137 135 135 141
317 333 348 339 352 352 97 102 46 24 256 245 240 255 280 324 287 271 251 256 255 257 285 220 256 254 233 243 274 236 255 55 5 274 297 307 303 308 300 297 276 228 169 158 152 149 140 139 144 139 128 135 147 145
327 244 298 331 339 96 157 78 351 236 248 242 245 239 260 271 267 268 212 244 235 326 274 264 257 253 293 246 274 328 8 313 304 304 294 290 297 299 286 281 286 148 144 139 135 130 122 120 123 128 137 143 136 136
240 272 319 333 99 321 272 214 221 250 246 244 251 209 202 231 249 263 245 236 174 231 239 244 263 251 273 292 314 291 303 298 300 293 293 289 300 301 278 44 53 143 137 135 123 122 125 131 135 137 130 131 122 120
236 250 287 297 195 312 283 256 212 267 254 250 266 226 224 253 234 247 258 259 222 207 272 248 273 249 248 225 274 291 266 271 304 308 297 312 324 302 31 43 56 111 114 122 124 125 125 128 129 130 130 135 131 130
270 268 257 257 173 245 266 235 178 260 271 257 250 259 230 247 256 236 237 234 179 208 223 223 225 227 219 265 314 286 298 321 312 318 326 346 315 22 34 36 13 81 91 90 96 101 107 106 110 121 127 127 129 145
352 282 245 150 207 220 257 265 250 232 266 258 267 278 274 287 264 247 251 151 151 208 233 231 241 259 265 294 276 281 326 332 319 321 327 286 333 24 23 18 47 68 124 120 113 115 114 123 128 125 128 133 133 148
252 236 153 180 241 237 259 214 226 262 258 259 285 223 273 286 279 260 331 149 227 241 208 208 233 247 284 293 286 298 312 321 324 322 319 354 26 6 349 344 352 125 114 116 118 119 118 121 120 121 125 124 123 133
331 160 237 215 245 222 252 147 236 240 260 279 282 278 265 273 252 315 271 224 248 239 242 246 252 238 245 275 240 330 321 319 320 323 345 6 3 319 302 240 167 120 109 93 106 112 117 117 113 119 112 118 120 101
190 231 233 228 218 256 233 251 237 265 268 244 266 267 263 271 301 260 264 268 255 294 319 296 267 285 5 9 320 330 336 308 321 360 354 314 318 303 14 87 71 80 107 113 110 113 119 113 117 114 113 111 116 114
230 239 211 239 244 249 258 247 227 239 246 231 254 274 281 295 264 267 265 279 317 300 310 332 357 306 59 293 307 299 313 293 329 329 313 276 358 14 51 69 65 53 99 110 112 111 101 103 95 109 118 119 115 109
236 213 188 206 204 196 225 254 225 227 255 253 232 223 248 285 269 255 277 279 275 286 310 341 342 20 154 221 265 305 298 296 333 355 331 2 5 352 352 77 84 48 39 119 121 114 104 100 108 117 124 114 122 119
243 247 217 229 238 216 260 257 258 241 249 257 268 236 309 263 252 244 262 234 245 252 256 278 275 287 222 200 239 246 248 222 205 224 255 239 195 154 311 115 107 160 145 122 125 132 138 143 125 123 125 116 146 153
239 253 207 200 215 213 261 272 258 240 219 224 209 223 229 231 255 232 215 232 229 279 280 274 247 245 228 197 251 261 270 313 295 284 94 89 85 319 215 259 42 134 156 139 134 129 126 128 136 139 135 143 165 171
235 235 289 245 225 221 222 210 230 234 210 168 207 219 228 211 235 262 267 245 224 229 292 311 319 304 194 148 169 247 251 335 26 24 51 14 358 38 351 256 111 136 125 90 62 91 130 129 134 127 138 153 99 96
235 183 229 236 225 228 222 203 240 235 228 223 252 284 283 279 275 294 232 168 187 216 231 236 262 346 42 238 289 309 333 80 129 212 294 358 48 321 60 102 85 81 93 102 109 122 135 114 113 117 123 110 116 142
257 250 247 236 257 243 236 255 266 268 267 254 232 242 262 292 298 268 227 199 186 239 240 196 303 274 192 223 237 346 318 278 217 223 228 252 272 80 119 130 153 127 107 108 132 157 144 139 121 126 139 124 156 170
211 215 239 263 272 279 306 202 239 272 260 226 272 225 246 219 273 284 209 120 115 250 259 216 201 258 223 238 233 233 222 296 272 236 243 210 200 172 150 134 133 112 75 42 52 94 115 139 136 146 148 153 164 174
247 216 221 266 273 283 285 320 273 271 260 259 209 193 246 206 315 270 197 194 199 216 216 220 227 239 246 225 228 246 237 235 270 312 2 24 178 151 129 123 134 164 146 52 134 145 135 131 136 139 154 171 170 130